Theta_e
342 343 347 346 345 338 341 342 343 338 344 343 346 346 348 351 348 351 348 351 351 352 350 351 352 351 351 351 352 350 347 347 345 350 351 351 346 346 349 350 351 350 351
340 341 344 349 347 344 342 346 346 346 348 345 344 345 350 349 351 351 351 352 351 352 352 353 352 351 350 350 349 349 349 343 344 350 351 349 350 351 349 345 345 348 349
343 343 343 343 348 349 349 350 347 348 350 348 350 351 352 352 350 351 351 351 351 352 353 353 353 349 351 350 346 347 346 348 348 349 337 345 344 345 342 342 346 342 341
345 347 346 346 350 350 350 345 350 351 350 351 350 350 352 351 352 350 349 352 352 350 352 353 353 348 347 345 344 344 344 345 349 348 348 348 349 350 350 350 348 347 347
347 345 348 348 350 350 351 351 351 351 351 351 351 351 352 351 350 350 349 351 352 351 352 353 352 348 346 348 345 345 346 346 348 348 346 344 350 350 350 350 352 352 346
347 347 350 351 350 350 351 351 352 351 352 351 352 352 352 352 353 353 353 352 352 353 353 354 353 349 343 345 345 345 345 348 348 348 348 348 349 351 350 348 342 344 344
348 349 350 346 350 350 351 351 352 351 351 352 352 353 352 352 351 352 350 352 353 351 354 352 345 339 341 347 346 349 350 349 345 344 338 341 347 345 346 339 333 330 329
349 349 350 349 351 352 352 352 352 351 352 351 351 353 351 351 351 353 353 348 352 352 353 351 335 336 343 345 348 348 351 350 347 343 331 330 337 335 331 330 332 334 336
349 350 350 350 351 352 351 352 352 352 352 351 351 352 352 354 353 353 351 352 352 351 346 332 333 329 337 345 343 346 349 348 345 342 327 327 328 332 334 336 338 340 342
348 343 349 349 349 351 352 352 352 352 352 351 352 348 351 353 352 351 347 351 350 350 345 337 328 325 331 342 342 342 343 344 342 341 330 331 334 336 337 339 340 342 343
347 348 346 347 348 351 348 351 352 350 352 349 347 344 344 345 347 345 341 340 340 341 340 335 327 328 333 337 338 340 342 343 340 337 331 333 336 338 339 340 341 343 344
347 349 349 348 349 344 345 345 345 344 345 341 344 347 349 350 344 340 340 339 338 340 342 344 334 335 336 337 338 340 341 342 338 333 334 337 338 340 341 342 342 343 343
346 345 338 346 348 346 344 343 347 348 348 349 348 348 349 350 344 339 338 337 338 339 341 343 346 347 349 349 347 343 343 339 335 334 337 338 340 341 342 342 342 342 341
339 340 343 345 346 346 342 348 349 347 348 346 346 348 344 344 340 339 337 341 344 346 347 348 348 347 347 348 348 343 344 336 336 337 338 340 341 342 343 342 342 342 343
341 338 341 346 346 348 349 348 349 344 346 345 344 346 345 343 344 344 345 348 347 347 347 345 346 345 344 344 343 343 340 338 335 337 340 342 342 343 343 343 343 343 343
346 342 345 343 345 347 347 346 347 349 346 341 344 345 346 346 345 347 346 343 347 346 348 346 346 345 345 343 340 338 340 338 338 340 341 341 342 343 343 343 344 343 343
347 343 342 340 345 345 344 345 345 346 342 344 346 346 348 344 345 344 347 347 349 346 348 345 346 348 344 342 342 340 339 343 344 341 340 341 343 343 343 346 347 348 349
345 343 346 341 346 345 337 341 342 344 345 342 342 348 347 348 349 346 344 345 347 348 349 345 346 347 342 341 341 342 341 341 342 344 344 345 346 345 346 347 348 351 350
344 343 346 345 347 341 343 340 345 347 346 344 341 345 340 345 349 348 347 349 348 348 350 348 347 348 342 342 343 342 341 343 339 343 345 344 346 347 349 351 350 352 346
345 346 346 345 345 349 347 347 346 345 345 342 344 347 349 348 348 346 347 347 346 342 347 348 352 346 342 344 344 343 343 343 343 345 345 345 346 348 350 352 355 351 344
347 346 346 344 343 348 344 347 345 344 343 346 348 347 343 348 350 344 345 345 342 345 344 347 350 355 348 345 347 343 344 344 342 343 343 344 347 348 352 351 356 350 349
345 345 346 345 348 346 344 345 344 343 344 348 347 348 344 344 350 350 351 344 333 344 346 350 354 354 353 350 346 352 345 346 343 343 338 335 342 347 350 351 354 351 352
345 345 344 345 346 345 344 345 343 341 346 350 349 347 346 346 350 351 349 347 340 338 347 348 351 351 348 350 354 348 346 338 338 342 336 338 343 344 348 347 353 351 353
345 347 346 346 345 346 345 348 346 346 348 348 345 346 344 346 350 351 351 348 342 339 343 350 350 340 340 351 352 350 345 337 336 335 337 338 336 339 345 343 350 351 350
352 352 350 349 347 345 346 347 346 344 347 344 344 349 346 349 347 350 350 348 349 337 342 334 351 353 350 349 353 350 345 340 346 340 341 343 338 337 337 340 348 352 351
351 352 349 346 343 346 348 349 346 348 349 347 346 347 350 348 345 350 351 351 351 350 350 351 354 353 350 336 353 354 355 352 343 337 344 341 343 343 343 338 345 350 350
Wind_Speed
18 19 17 16 17 19 19 18 17 17 16 14 13 14 15 15 16 16 16 16 16 16 16 16 16 16 17 16 15 16 17 17 18 19 18 18 18 18 19 15 16 16 15
25 21 18 16 14 16 18 19 18 17 16 16 15 15 16 16 16 16 15 14 15 15 17 16 16 16 17 16 16 16 15 17 18 19 18 18 17 19 16 10 13 13 13
24 22 18 17 16 16 20 20 19 18 17 17 16 15 17 16 16 16 16 16 15 16 15 15 14 15 16 16 17 17 17 18 19 18 18 17 16 14 13 13 13 12 12
25 21 21 19 18 19 21 21 19 18 17 17 17 16 17 17 17 16 17 16 17 16 15 14 14 15 16 18 18 16 15 16 16 18 17 16 15 14 14 13 13 13 12
25 23 21 20 20 21 20 22 19 18 17 17 17 17 17 18 18 18 18 17 19 17 17 16 14 15 17 17 15 17 20 13 9 9 15 14 14 13 13 13 12 10 9
26 25 21 20 19 21 20 20 19 18 18 18 17 17 17 18 17 18 18 17 18 18 16 15 14 14 16 17 15 11 9 12 19 22 16 14 15 12 11 10 9 8 7
26 24 22 22 21 21 19 18 18 18 18 18 17 17 18 18 18 17 18 18 16 17 16 14 14 15 16 15 15 15 17 17 18 13 13 13 12 10 9 8 8 8 7
30 24 23 22 21 19 18 17 18 18 18 18 17 17 18 18 18 17 18 18 16 15 15 13 14 15 14 14 15 18 20 19 14 11 11 12 11 10 10 9 9 9 8
29 27 25 21 20 19 18 18 17 17 17 17 17 18 18 17 17 18 19 17 16 15 14 14 14 15 16 14 15 15 15 17 11 9 10 12 11 11 10 9 9 8 7
29 29 25 22 21 20 18 17 16 17 17 17 16 17 18 16 17 16 17 16 14 14 13 12 13 15 16 15 15 16 13 12 14 10 10 11 11 10 9 9 7 6 6
25 28 24 20 18 18 17 15 14 14 15 17 17 19 19 18 15 12 15 15 14 13 13 12 13 15 17 17 14 12 12 11 13 9 10 11 11 10 8 7 6 5 4
31 29 26 21 20 17 15 17 16 17 16 17 20 22 15 15 11 12 13 13 12 11 10 11 12 13 10 8 7 6 8 13 13 9 11 11 11 9 7 5 4 4 4
34 31 20 22 21 17 17 18 16 12 11 10 9 12 14 18 11 13 13 13 11 9 7 5 4 7 7 4 5 4 4 19 10 10 11 11 10 8 6 4 4 3 3
30 31 23 24 17 20 20 16 14 11 11 12 9 13 15 18 12 13 12 9 6 5 3 5 5 4 3 6 10 8 7 15 10 10 11 10 8 6 4 2 1 3 4
35 29 28 23 25 21 16 16 16 16 13 12 13 11 10 9 11 12 9 7 8 10 7 3 6 4 3 3 5 12 18 13 10 11 10 8 6 4 2 2 4 5 6
36 33 25 28 20 17 17 14 18 18 16 16 11 8 11 14 8 9 7 9 3 4 3 7 5 4 4 3 8 10 15 11 10 10 8 6 4 3 1 1 4 6 7
33 25 17 22 19 14 13 15 17 22 18 15 10 11 6 8 6 2 4 3 6 8 4 5 4 2 9 8 2 8 6 7 2 7 5 3 3 4 3 3 4 7 8
28 21 21 23 16 18 14 19 18 18 12 19 14 7 5 7 2 1 2 3 3 4 3 4 3 3 14 7 10 10 6 9 6 8 5 8 9 9 7 7 3 7 8
28 25 26 24 22 20 19 25 7 2 26 16 15 13 9 4 2 2 7 4 1 2 7 7 7 11 15 11 12 12 13 11 9 8 6 6 9 9 1 2 1 6 9
26 30 29 25 24 20 16 10 7 11 16 12 15 14 10 6 3 3 4 8 2 6 3 2 8 5 8 8 12 16 17 15 7 8 5 11 11 11 5 5 6 5 7
31 30 31 27 24 19 19 12 13 15 10 10 20 17 10 11 6 12 3 2 1 9 3 11 8 11 6 1 2 15 13 9 7 7 9 14 10 10 5 3 7 1 4
29 30 28 28 29 24 21 15 15 18 10 15 17 13 6 13 7 5 3 0 6 8 3 8 8 8 9 6 1 3 3 3 6 6 19 22 20 18 6 18 7 3 5
32 28 29 30 27 25 23 16 17 16 13 20 16 13 9 10 6 7 6 2 7 6 3 8 1 5 5 7 14 2 3 2 4 1 18 23 15 20 11 36 7 10 1
31 30 30 29 27 24 23 16 16 16 19 18 17 12 8 8 6 5 4 2 0 3 4 6 8 7 4 13 17 6 3 5 3 4 9 17 19 17 13 15 9 4 10
31 31 31 30 29 25 22 19 17 15 17 15 13 15 15 14 10 7 6 7 5 5 8 1 4 5 5 2 12 5 3 3 27 15 3 8 4 5 14 6 13 17 9
28 29 31 30 30 25 20 16 20 15 13 12 16 19 20 13 14 8 13 7 4 3 2 2 1 1 2 8 12 6 8 0 11 7 5 8 11 12 16 10 3 11 8
Wind_Direction
147 143 133 129 125 117 117 113 111 108 104 100 106 102 98 93 97 95 97 105 105 108 109 105 107 107 107 109 108 107 106 107 108 102 93 85 94 98 91 93 88 88 88
145 141 140 138 135 123 114 111 112 113 116 117 113 111 107 103 101 103 104 106 110 108 109 109 113 113 113 114 111 106 106 106 104 105 96 88 90 91 105 97 94 94 91
145 146 144 139 129 124 117 117 113 115 117 119 116 115 111 108 103 101 102 107 111 111 113 112 115 113 111 110 105 104 106 107 107 103 94 95 91 95 100 97 97 95 93
140 146 143 140 135 127 125 116 116 119 118 117 114 111 110 108 105 106 106 107 110 111 114 118 116 116 112 107 106 115 116 118 127 86 96 100 99 97 97 94 90 88 88
138 141 138 138 133 125 124 121 124 119 120 114 114 113 108 108 109 105 106 108 110 114 113 114 119 118 119 118 113 100 95 109 120 138 114 106 107 101 94 89 91 103 89
137 134 135 130 129 129 124 125 125 125 118 115 113 113 112 110 109 107 106 109 107 111 113 117 121 125 133 124 114 104 91 109 111 127 119 117 105 106 105 101 105 114 108
133 130 135 133 127 132 130 129 127 124 121 117 116 117 115 111 112 112 112 113 111 113 117 119 124 133 138 124 120 120 111 129 127 120 117 123 117 113 112 115 111 109 102
134 138 137 137 134 133 133 133 128 126 124 125 124 121 119 115 116 110 112 116 114 120 122 127 128 138 138 123 115 111 108 118 124 108 111 122 123 121 119 117 114 108 104
138 134 133 135 132 134 136 136 133 132 131 132 131 128 121 118 120 117 117 120 122 121 123 125 129 134 140 130 116 122 125 124 123 121 123 124 126 124 122 119 113 114 108
135 135 137 136 141 137 137 139 137 140 140 135 133 133 128 130 126 123 123 125 125 123 124 125 128 128 140 144 136 132 122 119 144 124 121 131 130 127 126 120 120 113 102
135 134 132 134 133 142 145 141 145 145 144 136 135 134 131 124 124 123 123 124 121 126 125 121 123 132 137 141 144 142 127 116 160 131 138 136 133 132 128 125 119 106 88
136 136 142 145 151 149 144 144 146 143 136 132 135 136 134 138 129 129 129 127 131 140 135 126 124 126 135 150 159 140 129 160 163 129 138 140 136 136 133 128 110 80 62
139 141 155 150 149 147 148 144 144 151 169 171 161 151 153 158 144 145 145 137 139 146 163 167 178 183 191 195 201 179 154 165 134 137 144 145 142 138 131 118 85 51 27
141 147 145 161 177 165 153 156 151 162 162 150 161 155 155 160 165 161 167 165 180 183 202 228 270 242 263 233 222 208 176 164 136 141 148 146 143 139 124 103 46 8 10
142 155 154 158 163 160 175 169 174 160 160 151 144 135 176 184 187 205 216 223 244 264 248 233 190 156 113 102 176 222 199 169 137 147 145 148 144 143 131 20 348 355 6
145 158 163 173 159 166 166 186 183 193 178 143 145 142 120 156 140 172 194 194 187 217 173 174 166 163 114 109 88 117 128 162 140 149 150 150 155 183 202 15 357 356 356
145 143 162 181 158 165 167 173 190 161 166 151 143 137 119 149 126 178 268 244 155 151 183 185 202 244 169 151 129 136 157 129 157 180 183 179 209 251 264 306 358 5 4
145 148 171 168 165 189 187 179 161 171 201 168 149 137 181 144 139 239 61 180 294 339 332 267 286 359 161 160 165 160 168 176 195 208 248 252 290 282 304 283 329 9 15
154 158 163 183 176 160 170 184 214 248 165 162 159 161 156 177 43 348 11 3 245 234 5 308 280 281 197 180 185 189 192 192 181 180 202 249 267 260 302 12 91 57 58
157 162 163 177 172 167 180 197 243 142 154 169 165 165 162 129 116 39 49 356 302 155 12 87 329 124 179 218 202 213 197 217 198 228 296 306 292 256 237 75 71 138 126
150 159 158 166 167 175 183 190 177 164 159 158 173 172 169 142 111 113 246 28 102 213 125 349 360 350 339 159 307 201 212 217 107 59 32 20 6 358 212 150 138 151 87
159 152 160 169 171 177 186 182 180 172 163 152 171 174 189 160 133 142 157 57 170 125 59 2 9 9 331 344 30 2 19 42 28 22 21 12 5 4 337 349 163 124 144
164 166 158 167 174 179 181 192 192 184 179 167 166 171 170 178 160 154 148 121 139 170 9 1 45 13 325 354 3 300 69 235 313 224 31 32 5 350 348 28 28 46 152
173 174 171 173 180 188 190 205 203 198 157 174 182 192 184 171 197 184 145 100 115 104 133 46 46 31 2 346 7 326 201 150 181 30 58 25 6 316 339 28 42 186 158
168 175 180 179 185 188 190 209 209 190 184 193 209 189 196 187 208 211 192 179 212 177 206 255 27 34 3 42 356 11 82 79 67 68 318 332 13 281 254 311 75 153 152
176 177 183 176 180 187 194 199 199 196 179 210 223 217 191 194 187 208 194 208 212 227 239 168 333 62 321 261 293 334 26 120 166 145 217 239 243 231 231 273 183 201 163